SBSV Airport Information

Runway Information
Runway 10 Length 9859 ft width 148 ft
Elevation 30 ft Threshold 0 ft Heading 78
Runway 28 Length 9859 ft Width 148 ft
Elevation 64 ft Threshold 0 ft Heading 258
Runway 17 Length 4987 ft width 148 ft
Elevation 28 ft Threshold 0 ft Heading 143
Runway 35 Length 4987 ft Width 148 ft
Elevation 34 ft Threshold 0 ft Heading 323
Airport Frequencies
Type APP Name SALVADOR C Frequency 120.8 MHZ
Type ATIS Name SALVADOR A Frequency 127.75 MHZ
Type CLD Name SALVADOR T Frequency 121.1 MHZ
Type GND Name GND Frequency 121.9 MHZ
Type OPS Name SALVADOR O Frequency 122.5 MHZ
Type TWR Name SALVADOR T Frequency 118.3 MHZ
Airport Navaids
Type NDB Name Alagoinhas Frequency 310 KHZ
Type NDB Name Cimbra Frequency 220 KHZ
Type NDB Name Ipitanga Frequency 240 KHZ
Type VOR-DME Name Salvador Frequency 116500 KHZ
Type NDB Name Salvador Frequency 275 KHZ
Airport Weather Information & NOTAM
ADDS - METARS form results

(2227 UTC 20 June 2018)
 
METAR text: SBSV 202200Z 12003KT 9999 FEW018 26/21 Q1020
Conditions at: SBSV (SALVADOR/DOIS JU, BR) observed 2200 UTC 20 June 2018
Temperature: 26.0°C (79°F)
Dewpoint: 21.0°C (70°F) [RH = 74%]
Pressure (altimeter): 30.12 inches Hg (1020.0 mb)
Winds: from the ESE (120 degrees) at 3 MPH (3 knots; 1.6 m/s)
Visibility: 6 or more miles (10+ km)
Ceiling: at least 12,000 feet AGL
Clouds: few clouds at 1800 feet AGL
Weather: no significant weather observed at this time